Location: Cerda�ola
(41.4919°N, 2.1403°E)
Time: 05:14:42
(UTC+00:00)

Lacrosse 4 Rocket - Pass Details

Date: 15 August 2020
Orbit: 544 x 615 km, 68.0° (Epoch: 21 September)

Event Time Altitude Azimuth Distance (km) Brightness Sun altitude
Exits shadow 23:13:51 13° 308° (NW) 1,675 4.3 -34.0°
Maximum altitude 23:14:12 13° 314° (NW) 1,668 4.3 -34.0°
Drops below altitude 10° 23:16:17 10° 344° (NNW) 1,870 4.8 -34.1°
Sets 23:19:34 0° 12° (NNE) 2,755 5.8 -34.2°
